Météo par heure à Kyursola

Ce jour, 25 Juillet, Dimanche

Heure Température Précipitation Vent Pression Humidité
00:00 +8°C° 0 mm 2 m/s 747 mmHg 58%
01:00 +8°C° 0 mm 2 m/s 748 mmHg 60%
02:00 +7°C° 0 mm 2 m/s 748 mmHg 61%
03:00 +8°C° 0 mm 1 m/s 748 mmHg 63%
04:00 +9°C° 0 mm 1 m/s 749 mmHg 61%
05:00 +11°C° 0 mm 1 m/s 749 mmHg 59%
06:00 +12°C° 0 mm 1 m/s 750 mmHg 56%
07:00 +14°C° 0 mm 2 m/s 750 mmHg 52%
08:00 +15°C° 0 mm 2 m/s 750 mmHg 48%
09:00 +17°C° 0 mm 2 m/s 750 mmHg 43%
10:00 +18°C° 0 mm 2 m/s 750 mmHg 41%
11:00 +19°C° 0 mm 2 m/s 750 mmHg 38%
12:00 +20°C° 0 mm 2 m/s 751 mmHg 36%
13:00 +20°C° 0 mm 2 m/s 751 mmHg 35%
14:00 +21°C° 0 mm 2 m/s 751 mmHg 35%
15:00 +21°C° 0 mm 2 m/s 751 mmHg 34%
16:00 +22°C° 0 mm 1 m/s 751 mmHg 39%
17:00 +21°C° 0 mm 1 m/s 751 mmHg 45%
18:00 +19°C° 0 mm 0 m/s 751 mmHg 50%
19:00 +20°C° 0 mm 1 m/s 751 mmHg 50%
20:00 +18°C° 0 mm 1 m/s 751 mmHg 50%
21:00 +16°C° 0 mm 1 m/s 751 mmHg 50%
22:00 +15°C° 0 mm 1 m/s 751 mmHg 53%
23:00 +15°C° 0 mm 2 m/s 751 mmHg 55%

Demain, 26 Juillet, Lundi

Heure Température Précipitation Vent Pression Humidité
00:00 +14°C° 0 mm 2 m/s 751 mmHg 57%
01:00 +13°C° 0 mm 2 m/s 751 mmHg 59%
02:00 +13°C° 0 mm 2 m/s 751 mmHg 60%
03:00 +13°C° 0 mm 2 m/s 751 mmHg 62%
04:00 +14°C° 0 mm 2 m/s 752 mmHg 62%
05:00 +14°C° 0 mm 2 m/s 752 mmHg 63%
06:00 +15°C° 0 mm 2 m/s 752 mmHg 64%
07:00 +16°C° 0 mm 2 m/s 752 mmHg 59%
08:00 +18°C° 0 mm 3 m/s 752 mmHg 55%
09:00 +19°C° 0 mm 3 m/s 752 mmHg 51%
10:00 +20°C° 0 mm 3 m/s 752 mmHg 47%
11:00 +21°C° 0 mm 3 m/s 752 mmHg 43%
12:00 +24°C° 0 mm 3 m/s 752 mmHg 39%
13:00 +22°C° 0 mm 3 m/s 751 mmHg 41%
14:00 +22°C° 0 mm 3 m/s 751 mmHg 44%
15:00 +23°C° 0 mm 2 m/s 751 mmHg 46%
16:00 +21°C° 0 mm 2 m/s 751 mmHg 49%
17:00 +21°C° 0 mm 2 m/s 751 mmHg 52%
18:00 +21°C° 0 mm 2 m/s 750 mmHg 55%
19:00 +19°C° 0 mm 2 m/s 750 mmHg 59%
20:00 +17°C° 0 mm 2 m/s 750 mmHg 62%
21:00 +16°C° 0 mm 3 m/s 750 mmHg 65%
22:00 +14°C° 0 mm 3 m/s 750 mmHg 67%
23:00 +14°C° 0 mm 3 m/s 750 mmHg 69%

Après-demain, 27 Juillet, Mardi

Heure Température Précipitation Vent Pression Humidité
00:00 +13°C° 0 mm 3 m/s 750 mmHg 70%
01:00 +13°C° 0 mm 3 m/s 750 mmHg 71%
02:00 +13°C° 0 mm 3 m/s 749 mmHg 71%
03:00 +13°C° 0 mm 3 m/s 749 mmHg 71%
04:00 +14°C° 0 mm 3 m/s 749 mmHg 72%
05:00 +15°C° 0 mm 2 m/s 749 mmHg 73%
06:00 +16°C° 0 mm 2 m/s 749 mmHg 75%
07:00 +17°C° 0 mm 3 m/s 749 mmHg 70%
08:00 +19°C° 0 mm 3 m/s 749 mmHg 66%
09:00 +21°C° 0 mm 4 m/s 749 mmHg 61%
10:00 +21°C° 0.1 mm 4 m/s 749 mmHg 57%
11:00 +22°C° 0.1 mm 5 m/s 749 mmHg 53%
12:00 +23°C° 0.1 mm 5 m/s 749 mmHg 49%
13:00 +23°C° 0 mm 6 m/s 749 mmHg 46%
14:00 +23°C° 0 mm 6 m/s 748 mmHg 43%
15:00 +23°C° 0 mm 7 m/s 748 mmHg 39%
16:00 +22°C° 0 mm 6 m/s 748 mmHg 42%
17:00 +21°C° 0 mm 5 m/s 748 mmHg 44%
18:00 +21°C° 0 mm 4 m/s 748 mmHg 46%
19:00 +18°C° 0 mm 3 m/s 748 mmHg 52%
20:00 +16°C° 0 mm 2 m/s 748 mmHg 58%
21:00 +14°C° 0 mm 2 m/s 748 mmHg 64%
22:00 +13°C° 0 mm 1 m/s 749 mmHg 66%
23:00 +13°C° 0 mm 1 m/s 749 mmHg 68%

28 Juillet, Mercredi

Heure Température Précipitation Vent Pression Humidité
00:00 +12°C° 0 mm 1 m/s 749 mmHg 71%
01:00 +12°C° 0 mm 1 m/s 748 mmHg 71%
02:00 +11°C° 0 mm 1 m/s 748 mmHg 72%
03:00 +11°C° 0 mm 1 m/s 748 mmHg 72%
04:00 +12°C° 0 mm 1 m/s 748 mmHg 69%
05:00 +13°C° 0 mm 2 m/s 748 mmHg 67%
06:00 +14°C° 0 mm 2 m/s 748 mmHg 64%
07:00 +16°C° 0 mm 2 m/s 748 mmHg 58%
08:00 +18°C° 0 mm 2 m/s 748 mmHg 52%
09:00 +20°C° 0 mm 3 m/s 748 mmHg 46%
10:00 +21°C° 0 mm 3 m/s 747 mmHg 43%
11:00 +22°C° 0 mm 3 m/s 747 mmHg 40%
12:00 +25°C° 0 mm 4 m/s 747 mmHg 36%
13:00 +25°C° 0 mm 4 m/s 747 mmHg 35%
14:00 +26°C° 0 mm 4 m/s 746 mmHg 34%
15:00 +26°C° 0 mm 4 m/s 746 mmHg 33%
16:00 +26°C° 0 mm 3 m/s 746 mmHg 38%
17:00 +26°C° 0 mm 2 m/s 745 mmHg 44%
18:00 +23°C° 0 mm 0 m/s 745 mmHg 49%
19:00 +23°C° 0 mm 1 m/s 744 mmHg 54%
20:00 +20°C° 0 mm 2 m/s 744 mmHg 59%
21:00 +18°C° 0 mm 3 m/s 744 mmHg 65%
22:00 +18°C° 0 mm 3 m/s 743 mmHg 70%
23:00 +17°C° 0 mm 3 m/s 743 mmHg 75%

29 Juillet, Jeudi

Heure Température Précipitation Vent Pression Humidité
00:00 +16°C° 0 mm 3 m/s 743 mmHg 81%
01:00 +16°C° 0 mm 3 m/s 742 mmHg 82%
02:00 +16°C° 0 mm 3 m/s 742 mmHg 83%
03:00 +16°C° 0 mm 3 m/s 742 mmHg 84%
04:00 +17°C° 0 mm 2 m/s 742 mmHg 82%
05:00 +18°C° 0 mm 2 m/s 741 mmHg 80%
06:00 +19°C° 0 mm 2 m/s 741 mmHg 78%
07:00 +20°C° 0 mm 3 m/s 741 mmHg 74%
08:00 +21°C° 0 mm 3 m/s 741 mmHg 70%
09:00 +22°C° 0 mm 4 m/s 741 mmHg 66%
10:00 +21°C° 0.1 mm 4 m/s 741 mmHg 71%
11:00 +20°C° 0.1 mm 4 m/s 741 mmHg 75%
12:00 +20°C° 0.1 mm 5 m/s 741 mmHg 79%
13:00 +20°C° 0.2 mm 4 m/s 741 mmHg 81%
14:00 +20°C° 0.2 mm 3 m/s 740 mmHg 82%
15:00 +20°C° 0.2 mm 3 m/s 740 mmHg 83%
16:00 +20°C° 0 mm 3 m/s 740 mmHg 83%
17:00 +19°C° 0 mm 3 m/s 740 mmHg 83%
18:00 +19°C° 0 mm 2 m/s 740 mmHg 83%
19:00 +18°C° 0 mm 2 m/s 740 mmHg 87%
20:00 +17°C° 0 mm 2 m/s 740 mmHg 91%
21:00 +16°C° 0 mm 1 m/s 740 mmHg 95%
22:00 +15°C° 0 mm 1 m/s 740 mmHg 96%
23:00 +15°C° 0 mm 1 m/s 740 mmHg 96%

30 Juillet, Vendredi

Heure Température Précipitation Vent Pression Humidité
00:00 +15°C° 0 mm 1 m/s 740 mmHg 96%
01:00 +15°C° 0 mm 1 m/s 740 mmHg 96%
02:00 +14°C° 0 mm 1 m/s 740 mmHg 96%
03:00 +14°C° 0 mm 1 m/s 740 mmHg 96%
04:00 +15°C° 0 mm 1 m/s 741 mmHg 94%
05:00 +16°C° 0 mm 1 m/s 741 mmHg 92%
06:00 +18°C° 0 mm 1 m/s 741 mmHg 89%
07:00 +20°C° 0 mm 1 m/s 742 mmHg 81%
08:00 +21°C° 0 mm 2 m/s 742 mmHg 72%
09:00 +23°C° 0 mm 2 m/s 742 mmHg 64%
10:00 +25°C° 0 mm 2 m/s 743 mmHg 56%
11:00 +26°C° 0 mm 2 m/s 743 mmHg 49%
12:00 +27°C° 0 mm 3 m/s 743 mmHg 41%
13:00 +27°C° 0 mm 3 m/s 743 mmHg 39%
14:00 +27°C° 0 mm 3 m/s 743 mmHg 37%
15:00 +27°C° 0 mm 3 m/s 743 mmHg 35%
16:00 +27°C° 0 mm 2 m/s 744 mmHg 41%
17:00 +26°C° 0 mm 1 m/s 744 mmHg 46%
18:00 +25°C° 0 mm 1 m/s 744 mmHg 52%
19:00 +23°C° 0 mm 1 m/s 744 mmHg 54%
20:00 +22°C° 0 mm 1 m/s 744 mmHg 56%
21:00 +20°C° 0 mm 1 m/s 744 mmHg 58%
22:00 +18°C° 0 mm 2 m/s 745 mmHg 59%
23:00 +18°C° 0 mm 2 m/s 745 mmHg 61%
Voir plus

Nous avons besoin de votre consentement

Meteoprog et ses fournisseurs de services peuvent stocker et accéder à des données personnelles telles que des cookies, des identifiants d'appareils ou d'autres technologies similaires sur votre appareil et traiter ces données pour personnaliser le contenu et les publicités, ainsi que pour fournir des fonctionnalités de médias sociaux et analyser le trafic.

  • Stocker et/ou accéder à des informations sur votre appareil

    Des cookies, des identifiants d'appareils ou d'autres informations peuvent être stockés ou accessibles sur votre appareil aux fins indiquées ci-dessus.

  • Annonces et contenus personnalisés, mesure des annonces et des contenus, connaissance de l'audience et développement de produits

    Les annonces et le contenu peuvent être personnalisés en fonction d'un profil. D'autres données peuvent être ajoutées pour mieux personnaliser les annonces et le contenu. Les performances des publicités et du contenu peuvent être mesurées. Il est possible d'obtenir des informations sur le public qui a vu les publicités et le contenu. Ces données peuvent être utilisées pour développer ou améliorer l'expérience de l'utilisateur, les systèmes et les logiciels.

En cliquant sur "J'accepte", vous autorisez l'utilisation de cookies, des identifiants d'appareils, des balises web ou d'autres technologies similaires. Vos paramètres peuvent être modifiés dans le navigateur de votre appareil.

Dans certains cas, des intérêts légitimes peuvent être invoqués plutôt qu'un consentement. Vous pouvez en savoir plus à ce sujet dans notre Politique de confidentialité et de cookies.